EN

Hourly Weather Budrevichi

Today, 16 April, Friday

Time Temperature Precipitation Wind Pressure Humidity
00:00 +4°C° 0.1 mm 4 mps 741 mmHg 95%
01:00 +3°C° 0.1 mm 5 mps 741 mmHg 95%
02:00 +3°C° 0.1 mm 5 mps 741 mmHg 95%
03:00 +3°C° 0 mm 5 mps 741 mmHg 96%
04:00 +3°C° 0 mm 5 mps 740 mmHg 96%
05:00 +5°C° 0 mm 5 mps 740 mmHg 96%
06:00 +5°C° 0 mm 5 mps 740 mmHg 95%
07:00 +5°C° 0 mm 5 mps 740 mmHg 95%
08:00 +6°C° 0 mm 4 mps 740 mmHg 94%
09:00 +6°C° 0.1 mm 4 mps 740 mmHg 92%
10:00 +7°C° 0.1 mm 4 mps 741 mmHg 90%
11:00 +7°C° 0.1 mm 5 mps 741 mmHg 89%
12:00 +8°C° 0 mm 4 mps 741 mmHg 86%
13:00 +10°C° 0 mm 4 mps 741 mmHg 84%
14:00 +10°C° 0 mm 4 mps 741 mmHg 82%
15:00 +10°C° 0.6 mm 5 mps 741 mmHg 80%
16:00 +10°C° 0.6 mm 5 mps 741 mmHg 79%
17:00 +10°C° 0.6 mm 5 mps 741 mmHg 77%
18:00 +9°C° 0.4 mm 5 mps 741 mmHg 81%
19:00 +8°C° 0.4 mm 4 mps 741 mmHg 84%
20:00 +7°C° 0.4 mm 4 mps 742 mmHg 88%
21:00 +6°C° 0 mm 4 mps 742 mmHg 90%
22:00 +7°C° 0 mm 3 mps 742 mmHg 91%
23:00 +5°C° 0 mm 3 mps 743 mmHg 93%

Tomorrow, 17 April, Saturday

Time Temperature Precipitation Wind Pressure Humidity
00:00 +5°C° 0 mm 3 mps 743 mmHg 94%
01:00 +5°C° 0 mm 3 mps 743 mmHg 95%
02:00 +4°C° 0 mm 3 mps 743 mmHg 96%
03:00 +4°C° 0 mm 3 mps 743 mmHg 96%
04:00 +4°C° 0 mm 3 mps 743 mmHg 96%
05:00 +4°C° 0 mm 3 mps 743 mmHg 96%
06:00 +5°C° 0 mm 3 mps 744 mmHg 92%
07:00 +7°C° 0 mm 3 mps 744 mmHg 88%
08:00 +7°C° 0 mm 4 mps 745 mmHg 85%
09:00 +8°C° 0.1 mm 4 mps 745 mmHg 78%
10:00 +11°C° 0.1 mm 4 mps 745 mmHg 71%
11:00 +12°C° 0.1 mm 4 mps 745 mmHg 65%
12:00 +13°C° 0.1 mm 4 mps 745 mmHg 61%
13:00 +13°C° 0.1 mm 4 mps 745 mmHg 57%
14:00 +14°C° 0.1 mm 4 mps 745 mmHg 52%
15:00 +14°C° 0.1 mm 4 mps 745 mmHg 54%
16:00 +13°C° 0.1 mm 3 mps 745 mmHg 56%
17:00 +13°C° 0.1 mm 3 mps 745 mmHg 58%
18:00 +12°C° 0 mm 3 mps 745 mmHg 63%
19:00 +10°C° 0 mm 2 mps 745 mmHg 68%
20:00 +9°C° 0 mm 2 mps 746 mmHg 73%
21:00 +8°C° 0 mm 2 mps 746 mmHg 78%
22:00 +8°C° 0 mm 3 mps 746 mmHg 84%
23:00 +8°C° 0 mm 3 mps 746 mmHg 90%

Day after tomorrow, 18 April, Sunday

Time Temperature Precipitation Wind Pressure Humidity
00:00 +8°C° 0.1 mm 3 mps 745 mmHg 91%
01:00 +8°C° 0.1 mm 3 mps 745 mmHg 91%
02:00 +8°C° 0.1 mm 3 mps 745 mmHg 91%
03:00 +7°C° 0 mm 4 mps 745 mmHg 91%
04:00 +7°C° 0 mm 4 mps 745 mmHg 90%
05:00 +7°C° 0 mm 4 mps 745 mmHg 89%
06:00 +7°C° 0 mm 4 mps 745 mmHg 86%
07:00 +7°C° 0 mm 5 mps 745 mmHg 83%
08:00 +8°C° 0 mm 5 mps 745 mmHg 80%
09:00 +9°C° 0 mm 5 mps 745 mmHg 74%
10:00 +10°C° 0 mm 5 mps 745 mmHg 68%
11:00 +11°C° 0 mm 6 mps 745 mmHg 62%
12:00 +12°C° 0 mm 5 mps 745 mmHg 64%
13:00 +12°C° 0 mm 5 mps 745 mmHg 65%
14:00 +11°C° 0 mm 4 mps 745 mmHg 67%
15:00 +11°C° 0 mm 4 mps 745 mmHg 68%
16:00 +11°C° 0 mm 4 mps 745 mmHg 69%
17:00 +10°C° 0 mm 4 mps 745 mmHg 70%
18:00 +10°C° 0 mm 4 mps 746 mmHg 72%
19:00 +9°C° 0 mm 3 mps 746 mmHg 74%
20:00 +8°C° 0 mm 3 mps 746 mmHg 76%
21:00 +8°C° 0 mm 3 mps 746 mmHg 78%
22:00 +7°C° 0 mm 2 mps 746 mmHg 81%
23:00 +7°C° 0 mm 2 mps 746 mmHg 83%

19 April, Monday

Time Temperature Precipitation Wind Pressure Humidity
00:00 +7°C° 0 mm 2 mps 746 mmHg 83%
01:00 +7°C° 0 mm 2 mps 746 mmHg 84%
02:00 +7°C° 0 mm 2 mps 746 mmHg 84%
03:00 +5°C° 0 mm 3 mps 745 mmHg 86%
04:00 +5°C° 0 mm 3 mps 745 mmHg 88%
05:00 +4°C° 0 mm 3 mps 745 mmHg 89%
06:00 +5°C° 0 mm 3 mps 745 mmHg 88%
07:00 +5°C° 0 mm 3 mps 745 mmHg 86%
08:00 +5°C° 0 mm 3 mps 745 mmHg 84%
09:00 +5°C° 0 mm 4 mps 745 mmHg 84%
10:00 +5°C° 0 mm 4 mps 745 mmHg 83%
11:00 +5°C° 0 mm 4 mps 744 mmHg 83%
12:00 +6°C° 0.1 mm 4 mps 744 mmHg 78%
13:00 +7°C° 0.1 mm 5 mps 744 mmHg 72%
14:00 +8°C° 0.1 mm 5 mps 744 mmHg 67%
15:00 +7°C° 0.1 mm 5 mps 743 mmHg 74%
16:00 +6°C° 0.1 mm 4 mps 743 mmHg 80%
17:00 +5°C° 0.1 mm 4 mps 743 mmHg 86%
18:00 +5°C° 0.2 mm 4 mps 742 mmHg 87%
19:00 +5°C° 0.2 mm 4 mps 742 mmHg 88%
20:00 +5°C° 0.2 mm 5 mps 742 mmHg 89%
21:00 +5°C° 0.3 mm 4 mps 741 mmHg 90%
22:00 +5°C° 0.3 mm 4 mps 741 mmHg 91%
23:00 +5°C° 0.3 mm 4 mps 740 mmHg 92%

20 April, Tuesday

Time Temperature Precipitation Wind Pressure Humidity
00:00 +5°C° 0.3 mm 4 mps 740 mmHg 92%
01:00 +4°C° 0.3 mm 4 mps 740 mmHg 93%
02:00 +4°C° 0.3 mm 4 mps 739 mmHg 93%
03:00 +4°C° 0.1 mm 4 mps 739 mmHg 93%
04:00 +4°C° 0.1 mm 4 mps 739 mmHg 93%
05:00 +4°C° 0.1 mm 4 mps 738 mmHg 93%
06:00 +4°C° 0.1 mm 4 mps 738 mmHg 93%
07:00 +5°C° 0.1 mm 5 mps 738 mmHg 93%
08:00 +5°C° 0.1 mm 5 mps 737 mmHg 93%
09:00 +5°C° 0.1 mm 5 mps 737 mmHg 92%
10:00 +5°C° 0.1 mm 5 mps 736 mmHg 92%
11:00 +4°C° 0.1 mm 6 mps 736 mmHg 91%
12:00 +4°C° 0.1 mm 6 mps 735 mmHg 92%
13:00 +3°C° 0.1 mm 6 mps 735 mmHg 93%
14:00 +3°C° 0.1 mm 6 mps 734 mmHg 94%
15:00 +3°C° 0.8 mm 6 mps 733 mmHg 94%
16:00 +3°C° 0.8 mm 6 mps 732 mmHg 94%
17:00 +3°C° 0.8 mm 7 mps 732 mmHg 94%
18:00 +3°C° 1.6 mm 7 mps 731 mmHg 95%
19:00 +2°C° 1.6 mm 7 mps 731 mmHg 95%
20:00 +2°C° 1.6 mm 7 mps 730 mmHg 96%
21:00 +2°C° 1.2 mm 7 mps 729 mmHg 96%
22:00 0°C° 1.2 mm 7 mps 729 mmHg 96%
23:00 0°C° 1.2 mm 7 mps 728 mmHg 96%

21 April, Wednesday

Time Temperature Precipitation Wind Pressure Humidity
00:00 0°C° 1 mm 7 mps 728 mmHg 97%
01:00 0°C° 1 mm 7 mps 728 mmHg 97%
02:00 +2°C° 1 mm 7 mps 727 mmHg 97%
03:00 +1°C° 1 mm 6 mps 727 mmHg 97%
04:00 +1°C° 1 mm 6 mps 727 mmHg 97%
05:00 +1°C° 1 mm 6 mps 727 mmHg 97%
06:00 +1°C° 0.6 mm 6 mps 728 mmHg 97%
07:00 +1°C° 0.6 mm 6 mps 728 mmHg 97%
08:00 +1°C° 0.6 mm 6 mps 728 mmHg 96%
09:00 +1°C° 0.1 mm 6 mps 729 mmHg 96%
10:00 +1°C° 0.1 mm 6 mps 729 mmHg 96%
11:00 +2°C° 0.1 mm 6 mps 730 mmHg 96%
12:00 +2°C° 0.3 mm 6 mps 730 mmHg 96%
13:00 +2°C° 0.3 mm 6 mps 731 mmHg 96%
14:00 +2°C° 0.3 mm 6 mps 732 mmHg 96%
15:00 +2°C° 0.5 mm 6 mps 732 mmHg 96%
16:00 +2°C° 0.5 mm 7 mps 733 mmHg 96%
17:00 +2°C° 0.5 mm 7 mps 733 mmHg 96%
18:00 +2°C° 0.1 mm 7 mps 734 mmHg 93%
19:00 +3°C° 0.1 mm 7 mps 735 mmHg 90%
20:00 +3°C° 0.1 mm 7 mps 735 mmHg 87%
21:00 +3°C° 0 mm 7 mps 736 mmHg 86%
22:00 +3°C° 0 mm 6 mps 736 mmHg 86%
23:00 +2°C° 0 mm 6 mps 737 mmHg 85%
Show more

We Need Your Consent

Meteoprog and our Service Providers may store and access personal data such as cookies, device identifiers or other similar technologies on your device and process such data to personalise content and ads, as well as provide social media features and to analyse the traffic.

  • Store and/or access information on your device

    Cookies, device identifiers or other information can be stored or accessed on your device for the purposes indicated above.

  • Personalised ads and content, ad and content measurement, audience insights, and products development

    Ads and content can be personalised based on a profile. More data can be added to better personalise ads and content. Ad and content performance can be measured. Insights about the audience who saw the ads and content can be derived. Such data can be used to develop or improve user’s experience, systems and software.

By clicking ‘I Agree’ you will allow the use of indicated cookies, device identifiers, web beacons or other similar technologies. Your settings can be changed in the browser on your device.

For certain purposes, legitimate interests may be relied on, rather than consent. You can read more about this in our Privacy and Cookie Policy.